Location: Carnières
(50.1682°N, 3.3474°E)
Time: 02:22:53
(UTC+00:00)

Cosmos 2208 Rocket - Pass Details

Date: 23 May 2024
Orbit: 753 x 803 km, 74.0° (Epoch: 21 June)

Event Time Altitude Azimuth Distance (km) Brightness Sun altitude
Rises 02:54:48 0° 335° (NNW) 3,283 7.6 -7.5°
Reaches altitude 10° 02:57:13 10° 336° (NNW) 2,343 6.8 -7.3°
Maximum altitude 03:02:33 89° 248° (WSW) 778 4.1 -6.7°
Drops below altitude 10° 03:07:46 10° 159° (SSE) 2,294 6.3 -6.1°
Sets 03:10:06 0° 159° (SSE) 3,209 7.0 -5.8°
